Find Starlink 31881

NORAD ID: 59659 Int'l Des: 2024-084 Owner: SPXS Country: US Constellation: starlink operational
LEOCIRCULAR

Current View

Loading 3D Globe...

About Starlink 31881

Starlink 31881 (NORAD 59659) is a starlink constellation satellite (v2 mini) launched May 6, 2024 by SPXS of US. It operates in LEO, CIRCULAR orbit with a mass of 730.00 kg.

About Starlink 31881

Description loading...

Upcoming Passes

Passes for default location (London). Set your location on the main map for personalized predictions.

Altitude History

Loading altitude history...

Two-Line Element Set

1 59659U 24084F 26175.24501359 -.00000553 00000-0 -10589-4 0 9994
2 59659 42.9999 156.2014 0001108 271.5987 88.4738 15.27573297120713
Epoch: Jun 24, 2026 • Age: 8 hours

Current Status

Altitude 483.3 km
Velocity 7.63 km/s
Sub-Earth Point 24.34°N, 177.37°E
Launch Date May 6, 2024
Age 2.1 years
Type internet

Technical Details

Classification Payload
Mass 730.00 kg
Dry Mass 700.00 kg
Total Mass 730.00 kg
Length 0.30 m
Diameter 4.10 m
Span 29.00 m
Shape Box + pan
Manufacturer SPXS
Bus Type Starlink V2M
Phase Status In Orbit
Owner/State SPXS/US

Most Searched